Theta_e
303 303 305 305 306 306 306 305 305 305 305 305 305 306 306 307 305 306 308 309 310 311 312 313 314 314 314 314 313 312 311 311 310 310 308 307 307 306 305 304 303 303
301 301 302 302 303 303 304 304 304 304 304 304 304 305 304 304 304 304 305 305 306 307 308 310 311 312 313 313 312 311 311 310 310 309 308 306 306 306 305 305 304 303
299 300 300 301 303 303 303 302 302 303 303 303 302 302 304 302 303 302 304 304 304 304 305 306 307 308 309 310 311 310 309 309 308 308 306 306 306 305 305 305 304 304
298 299 300 301 301 302 302 301 301 301 300 300 302 302 301 302 301 302 302 300 303 303 304 304 304 305 306 307 308 308 308 308 309 308 307 307 306 306 305 305 304 303
297 298 298 299 300 300 299 300 300 300 300 301 300 300 300 300 300 299 300 300 301 301 302 302 303 303 303 304 305 306 306 306 306 306 306 306 306 305 305 304 303 302
295 296 297 298 298 298 298 298 299 299 299 299 300 299 299 299 299 299 299 299 299 299 300 300 301 301 301 302 303 304 304 304 304 305 304 304 305 304 303 302 302 301
295 295 295 295 295 296 297 297 298 297 298 299 296 297 297 297 297 298 298 298 298 298 299 299 299 300 300 301 301 302 303 303 303 303 302 302 302 300 299 299 299 299
293 292 293 293 293 293 294 294 295 295 295 293 295 297 295 297 297 298 297 297 297 298 298 298 298 299 299 299 300 301 301 302 302 300 299 299 299 299 298 298 298 297
290 291 290 290 291 292 291 292 292 292 292 293 294 295 293 295 296 296 296 296 296 296 297 297 298 297 297 297 297 298 298 299 300 299 298 298 298 298 298 298 297 296
290 289 290 289 290 291 291 291 291 291 290 291 292 292 292 293 293 294 294 294 294 295 295 295 295 295 295 295 297 297 297 297 297 297 297 298 298 298 298 298 297 297
290 289 289 289 289 289 289 290 290 290 290 290 291 291 292 292 292 291 292 293 294 294 294 294 294 295 294 295 295 296 296 296 297 297 297 297 297 298 295 298 297 297
289 289 289 289 289 289 289 289 289 289 290 290 290 291 291 291 291 291 291 292 293 293 293 294 294 294 294 295 295 295 295 295 295 296 296 296 297 297 297 297 297 297
289 289 289 289 289 289 289 289 289 289 289 289 289 289 290 290 290 291 291 291 292 292 292 293 293 294 294 294 294 295 295 295 295 295 295 295 296 296 296 297 297 297
288 288 288 288 288 288 289 289 289 289 289 289 288 289 289 289 290 290 291 291 291 291 292 292 292 293 293 294 294 294 294 294 295 294 294 295 295 295 295 296 296 297
288 288 288 288 288 288 288 289 289 289 288 288 288 289 289 289 289 289 290 290 291 291 291 291 291 292 293 293 293 293 294 294 294 294 294 294 294 294 295 295 295 296
288 288 288 288 289 289 289 288 289 288 288 288 288 288 288 289 288 289 289 289 289 290 290 291 291 292 290 291 292 293 293 294 294 294 294 294 293 293 294 295 295 296
288 288 287 288 288 288 288 288 288 288 288 288 288 288 288 288 288 288 288 289 289 289 290 290 291 291 290 292 293 294 293 293 293 293 294 294 294 293 293 294 295 295
287 287 287 287 287 287 287 287 287 287 287 287 288 288 288 288 288 288 288 289 289 289 289 289 290 290 292 292 293 294 293 293 293 293 293 293 293 293 294 294 294 294
286 286 286 286 287 286 286 286 286 286 286 286 287 287 287 287 288 288 288 288 288 288 289 289 289 290 291 292 292 293 294 293 294 293 293 292 293 293 293 293 293 293
286 286 286 286 286 286 286 285 285 286 286 286 286 286 286 287 287 287 288 288 288 288 289 289 289 289 291 292 292 292 293 293 293 292 292 292 293 293 293 293 293 293
285 285 285 285 285 285 285 285 285 285 285 286 286 286 286 286 287 287 287 287 288 287 288 288 289 290 291 291 292 292 293 293 293 292 292 292 292 292 293 293 293 293
285 285 285 285 285 284 284 285 285 285 285 286 285 286 286 286 286 286 286 286 287 286 287 287 289 290 290 291 292 292 293 291 291 290 290 291 291 292 292 293 293 293
285 284 284 284 284 284 284 284 284 285 285 285 285 285 285 286 286 286 286 286 286 286 286 287 288 288 290 290 291 292 291 290 289 289 289 289 290 291 291 292 292 292
284 284 283 283 283 283 283 284 284 284 284 284 284 284 284 285 285 285 286 286 285 286 286 286 287 287 289 290 290 291 290 288 288 288 288 288 289 290 290 291 291 288
283 283 282 282 282 282 282 282 283 283 284 284 284 284 284 285 285 285 285 285 286 285 285 285 286 286 288 289 290 290 290 288 288 288 287 288 288 288 289 290 290 289
282 281 281 281 281 282 282 282 283 283 283 283 283 283 283 284 284 284 283 284 285 285 285 286 286 286 287 288 289 289 290 288 288 287 287 287 287 288 288 288 289 289
Wind_Speed
5 4 5 5 5 5 5 6 5 5 6 5 6 7 7 6 5 7 8 7 9 8 8 8 8 8 8 8 7 7 8 8 8 8 9 11 12 13 13 15 15 14
6 5 5 4 5 5 5 5 5 5 6 6 6 6 6 6 7 6 7 7 7 8 9 8 8 8 8 7 7 8 8 8 10 7 8 11 11 12 15 15 15 14
5 5 5 7 7 7 7 4 4 5 6 6 6 6 6 5 7 7 7 8 8 8 10 10 9 10 9 8 8 8 8 8 10 6 7 9 9 10 11 12 12 14
5 5 5 6 6 7 5 4 5 5 5 5 7 6 5 5 5 6 6 6 7 7 7 7 8 8 8 9 9 9 10 10 9 8 9 9 10 10 12 10 11 12
6 6 6 6 5 5 4 5 6 5 6 6 6 5 5 6 6 6 7 7 7 8 7 8 8 8 8 8 8 9 9 9 9 8 9 10 9 9 11 11 13 14
6 6 5 5 5 4 5 5 6 6 6 6 7 5 6 6 6 7 7 7 7 8 8 8 8 8 8 8 8 9 9 9 8 9 10 11 10 9 9 10 11 12
5 5 5 4 3 3 4 5 5 5 5 6 3 6 5 6 7 7 7 8 8 8 9 9 9 8 8 8 9 10 10 10 9 9 11 10 9 10 9 10 11 12
5 4 3 3 3 3 4 5 5 5 6 4 6 7 5 6 7 6 6 7 8 9 8 9 9 9 8 8 9 11 11 9 9 9 11 11 9 11 9 9 10 11
5 6 6 5 5 5 5 6 6 6 5 6 6 6 5 5 7 6 7 7 8 9 9 9 9 9 7 8 10 11 11 10 10 10 11 11 11 11 10 9 10 10
7 6 7 6 6 5 6 7 6 6 5 5 6 6 6 6 6 7 7 7 8 8 8 8 8 8 8 9 11 11 11 11 10 10 11 11 12 12 11 10 11 11
7 7 7 6 6 5 6 6 6 6 5 6 6 6 6 6 6 6 7 7 8 8 8 8 8 8 9 10 10 10 11 11 11 11 11 11 12 12 12 11 11 12
8 7 7 7 6 6 6 6 6 5 5 5 5 7 6 6 7 6 6 8 8 8 8 8 8 9 10 11 11 10 10 11 11 11 11 11 12 12 12 11 12 13
7 7 7 7 6 6 6 5 6 6 5 6 5 5 6 7 6 7 7 7 8 8 8 8 9 9 10 10 10 10 10 11 11 11 11 11 12 12 12 12 12 13
6 5 6 6 5 6 6 6 5 5 5 5 5 5 6 7 7 7 7 6 7 7 8 8 8 9 10 10 10 10 10 11 11 11 11 11 12 12 12 12 13 13
7 6 5 6 5 5 6 6 6 6 6 5 5 5 5 6 6 6 7 8 7 7 8 8 8 10 9 9 9 10 10 11 12 12 12 12 12 12 12 12 13 13
7 7 7 7 8 9 9 8 7 7 7 7 6 6 6 6 6 6 6 8 8 9 8 8 8 8 10 14 13 11 10 10 10 11 11 12 12 13 13 13 14 13
7 8 7 8 8 8 8 9 10 9 9 9 9 8 8 7 6 7 7 7 8 8 9 9 9 9 13 13 15 17 13 11 11 12 12 12 12 13 14 14 13 13
8 8 8 8 8 8 8 8 7 7 8 8 8 9 9 8 8 8 8 8 8 8 9 10 10 10 14 15 15 16 15 12 11 11 11 12 12 13 13 13 13 13
8 8 8 8 8 7 7 6 6 6 6 6 7 7 6 8 9 9 9 8 8 10 10 10 10 11 12 15 15 17 17 15 11 12 12 13 13 13 14 13 13 13
7 7 8 8 8 7 7 6 6 7 7 7 6 6 7 8 7 9 9 9 9 10 11 11 11 10 13 15 15 17 17 15 12 13 13 14 14 14 13 14 14 13
7 7 8 8 8 7 7 6 6 7 7 6 6 6 7 8 8 8 8 7 9 9 10 12 10 11 14 15 15 17 17 15 12 11 12 13 13 13 14 15 15 14
7 8 8 8 8 7 6 7 6 6 8 7 6 6 6 6 7 6 8 9 8 8 10 12 12 10 13 15 15 16 18 11 10 11 12 13 13 14 14 14 14 14
7 8 8 8 8 9 9 8 9 10 9 6 9 9 8 8 8 9 8 9 11 9 9 12 13 11 11 15 14 16 13 9 9 9 11 12 14 14 14 14 14 13
9 9 9 10 9 10 11 10 9 8 7 6 8 11 12 10 9 10 10 8 9 11 9 10 14 14 12 13 15 14 12 10 8 9 11 12 13 13 13 13 14 17
8 8 8 9 10 9 9 11 10 9 9 8 8 8 10 10 9 9 11 11 8 9 14 13 13 15 15 13 15 15 11 8 9 9 11 12 11 13 13 12 12 13
8 9 9 9 11 11 10 9 8 9 9 9 10 8 9 11 10 10 12 13 12 10 10 11 12 13 15 17 15 16 14 9 7 9 11 13 12 12 13 12 11 10
Wind_Direction
247 230 237 233 231 225 234 228 223 227 228 225 220 225 219 237 231 228 234 236 237 238 241 240 238 236 231 225 219 222 224 225 227 220 217 217 223 223 226 226 223 223
233 224 233 240 250 235 234 223 233 217 234 224 227 231 231 227 228 216 224 232 237 238 241 243 241 238 236 232 226 229 233 228 235 213 217 219 226 224 230 229 228 228
251 236 223 228 236 242 236 225 220 228 228 233 231 227 236 223 237 222 220 216 222 228 230 233 236 238 238 239 237 238 242 240 244 221 220 229 228 228 232 231 232 228
273 249 241 242 240 250 250 243 238 231 235 241 231 228 220 228 228 237 235 240 244 248 245 241 237 239 236 236 237 240 241 243 243 236 237 237 235 236 237 232 234 233
272 264 248 247 248 248 246 235 243 237 231 234 247 235 226 229 225 230 232 236 238 246 244 238 238 240 234 237 234 242 243 246 243 236 238 241 238 236 242 233 230 230
264 250 247 241 235 233 240 237 247 244 244 247 243 232 228 231 234 231 233 236 235 241 244 244 242 240 235 234 236 239 242 242 238 233 238 240 243 233 241 239 241 240
265 259 258 244 250 241 249 256 258 253 252 254 272 247 232 240 234 238 239 238 243 240 240 241 240 241 234 233 236 243 243 244 244 237 239 242 240 242 235 239 240 240
294 289 300 323 313 303 278 279 273 265 263 276 252 261 231 247 246 245 240 242 242 246 244 242 243 243 235 228 237 243 245 242 245 240 243 246 241 245 239 236 238 241
331 343 350 348 345 319 306 288 282 274 270 264 265 270 257 241 253 247 241 240 242 244 246 243 240 239 233 230 236 240 244 244 240 240 241 244 242 242 241 240 243 242
5 352 357 352 339 319 307 300 294 289 281 265 269 274 269 258 245 251 246 242 246 251 249 249 246 243 239 233 239 239 244 246 242 241 243 244 245 246 241 235 239 245
8 358 358 346 329 314 299 295 292 291 287 272 278 273 265 268 264 241 248 249 249 251 253 249 247 243 243 243 242 242 245 247 247 245 244 244 245 245 244 240 239 240
9 3 359 340 325 316 304 300 297 289 285 276 260 270 274 263 261 257 240 250 250 254 253 256 252 244 243 247 247 245 246 247 250 250 249 248 248 247 245 241 242 243
8 360 347 337 331 317 309 308 302 294 289 284 271 263 275 277 264 260 254 250 257 258 256 255 256 251 250 250 252 251 250 252 253 252 251 250 251 250 249 247 245 246
7 340 338 329 320 318 317 314 309 304 294 284 278 274 267 268 274 274 272 258 261 259 259 256 256 258 255 254 254 253 254 255 253 256 257 256 255 252 249 249 247 247
354 355 338 340 330 329 336 333 327 315 310 301 289 279 268 268 270 275 283 282 270 259 262 254 254 255 255 255 259 258 252 257 257 256 257 260 260 257 253 249 250 247
353 353 356 349 356 353 349 341 336 335 328 324 315 296 289 283 284 277 270 273 281 278 268 262 258 257 257 254 251 257 261 260 263 261 259 260 262 264 260 253 252 251
359 357 351 357 348 341 340 343 339 337 335 330 328 324 315 309 295 294 284 275 272 277 280 273 267 264 263 261 260 256 256 263 262 265 263 260 261 261 264 263 257 253
356 349 351 346 344 339 334 327 324 324 325 323 322 322 321 322 312 297 296 291 285 279 273 271 269 266 267 268 264 263 257 258 262 263 264 262 260 261 263 265 263 261
348 346 339 336 336 328 320 320 316 313 311 314 311 301 304 302 295 298 289 286 277 277 274 268 266 265 263 264 263 262 260 256 260 258 261 263 261 260 262 263 263 264
340 335 334 328 324 323 324 321 323 318 312 303 300 304 298 295 291 284 282 277 272 271 273 271 264 263 257 259 259 259 259 256 255 257 257 260 261 260 261 262 260 261
344 338 333 330 327 327 326 323 318 313 311 308 304 299 298 295 295 293 282 274 273 270 271 273 267 258 259 258 257 259 260 257 256 256 257 259 259 257 256 258 259 258
342 336 330 327 326 325 324 323 320 312 313 313 303 295 281 273 275 262 275 283 275 271 277 280 280 267 263 264 259 259 260 258 255 254 257 259 260 258 256 256 256 253
339 333 328 329 329 329 330 331 331 328 324 322 317 313 310 308 304 300 297 292 292 284 275 282 286 279 262 262 259 257 259 257 257 257 259 261 260 262 259 257 255 251
337 337 333 333 333 333 329 325 322 314 311 320 314 313 312 310 308 304 298 287 283 286 277 280 287 288 275 269 270 261 253 259 259 261 263 263 267 265 264 261 257 252
333 334 332 327 326 321 322 318 318 315 309 310 303 300 297 301 303 301 300 296 284 278 286 282 283 289 287 277 271 269 260 255 261 262 268 267 269 272 269 264 262 257
332 331 327 328 323 318 316 312 309 311 310 311 306 304 303 305 306 302 300 297 298 292 287 284 286 289 289 284 276 274 263 254 253 259 260 268 270 271 277 275 268 262